This demonstration page uses our WeatherBlox Daily Observations layout. Learn more.

Left ArrowRight Arrow

Hourly Observations for December 23, 2019

Temp ( °F °C ) Dew Point ( °F °C ) Humidity (%) Winds ( mph kmh ) Pressure ( in mb ) Visibility ( mi km ) Precip ( " mm )
12:51 am 00:51 Clear 46 7.8 21 -6.1 37 37 SE 10 17 30.06 1018 10 16 N/A
1:51 am 01:51 Clear 46 7.8 22 -5.6 38 38 SE 13 20 30.05 1018 10 16 N/A
2:51 am 02:51 Clear 45 7.2 21 -6.1 39 39 ESE 12 19 30.04 1017 10 16 N/A
3:51 am 03:51 Clear 44 6.7 20 -6.7 38 38 ESE 13 20 30.03 1017 10 16 N/A
4:51 am 04:51 Clear 43 6.1 20 -6.7 40 40 ESE 13 20 30.02 1017 10 16 N/A
5:51 am 05:51 Clear 44 6.7 18 -7.8 35 35 ESE 12 19 30.05 1018 10 16 N/A
6:51 am 06:51 Clear 44 6.7 18 -7.8 35 35 E 10 17 30.06 1018 10 16 N/A
7:51 am 07:51 Sunny 44 6.7 19 -7.2 37 37 E 12 19 30.07 1018 10 16 N/A
8:51 am 08:51 Sunny 46 7.8 19 -7.2 34 34 E 12 19 30.08 1019 10 16 N/A
9:51 am 09:51 Sunny 47 8.3 19 -7.2 33 33 ESE 10 17 30.10 1019 10 16 N/A
10:51 am 10:51 Sunny 48 8.9 19 -7.2 32 32 SE 14 22 30.09 1019 10 16 N/A
11:51 am 11:51 Sunny 51 10.6 20 -6.7 29 29 SE 14 22 30.05 1018 10 16 N/A
12:51 pm 12:51 Sunny 51 10.6 23 -5 33 33 S 7 11 30.01 1016 10 16 N/A
1:51 pm 13:51 Sunny 52 11.1 23 -5 32 32 SSE 6 9 29.98 1015 10 16 N/A
2:51 pm 14:51 Sunny 53 11.7 24 -4.4 32 32 S 8 13 29.97 1015 10 16 N/A
3:51 pm 15:51 Sunny 54 12.2 23 -5 30 30 S 8 13 29.97 1015 10 16 N/A
4:51 pm 16:51 Sunny 52 11.1 25 -3.9 35 35 SE 3 6 29.98 1015 10 16 N/A
5:51 pm 17:51 Mostly Clear 51 10.6 26 -3.3 38 38 SE 9 15 29.98 1015 10 16 N/A
6:51 pm 18:51 Clear 50 10 26 -3.3 39 39 S 13 20 29.97 1015 10 16 N/A
7:51 pm 19:51 Partly Cloudy 50 10 25 -3.9 38 38 SSE 12 19 29.96 1014 10 16 N/A
8:51 pm 20:51 Mostly Clear 49 9.4 27 -2.8 43 43 E 6 9 29.97 1015 10 16 N/A
9:51 pm 21:51 Mostly Clear 47 8.3 28 -2.2 48 48 E 6 9 29.96 1015 10 16 N/A
10:51 pm 22:51 Cloudy 49 9.4 27 -2.8 43 43 SE 6 9 29.94 1014 10 16 N/A
11:51 pm 23:51 Mostly Cloudy 49 9.4 28 -2.2 44 44 ESE 10 17 29.90 1012 10 16 N/A

Powered by AerisWeather